| time (UTC) | temp F | wind direction | speed MPH | gust MPH | rain 1hr in | rain 24hr in | rain mn in | humidity % | barometer mb |
| 20260901163230 | 72 | 270 | 8.0 | 0.0 | 0.00 | 0.00 | 0.00 | 46 | 1020.0 |
| 20260901162459 | 72 | 260 | 12.0 | 0.0 | 0.00 | 0.00 | 0.00 | 46 | |
| 20260901160232 | 72 | 270 | 10.0 | 0.0 | 0.00 | 0.00 | 0.00 | 43 | 1020.0 |
| 20260901153230 | 73 | 270 | 10.0 | 0.0 | 0.00 | 0.00 | 0.00 | 40 | 1020.0 |
| 20260901152156 | 73 | 250 | 14.0 | 0.0 | 0.00 | 0.00 | 0.00 | 40 | |
| 20260901150232 | 73 | 250 | 14.0 | 0.0 | 0.00 | 0.00 | 0.00 | 43 | 1019.0 |
| 20260901143230 | 72 | 280 | 9.0 | 0.0 | 0.00 | 0.00 | 0.00 | 43 | 1019.0 |
| 20260901142355 | 73 | 260 | 14.0 | 0.0 | 0.00 | 0.00 | 0.00 | 40 | |
| 20260901140232 | 72 | 260 | 14.0 | 0.0 | 0.00 | 0.00 | 0.00 | 43 | 1019.0 |
| 20260901133231 | 75 | 260 | 15.0 | 0.0 | 0.00 | 0.00 | 0.00 | 38 | 1019.0 |
| 20260901132256 | 75 | 260 | 16.0 | 0.0 | 0.00 | 0.00 | 0.00 | 38 | |
| 20260901130240 | 75 | 260 | 15.0 | 0.0 | 0.00 | 0.00 | 0.00 | 38 | 1019.0 |
| 20260901123238 | 73 | 250 | 13.0 | 0.0 | 0.00 | 0.00 | 0.00 | 40 | 1019.0 |
| 20260901122211 | 72 | 260 | 14.0 | 0.0 | 0.00 | 0.00 | 0.00 | 43 | |
| 20260901120233 | 73 | 250 | 15.0 | 0.0 | 0.00 | 0.00 | 0.00 | 43 | 1020.0 |
| 20260901113231 | 75 | 250 | 15.0 | 0.0 | 0.00 | 0.00 | 0.00 | 41 | 1020.0 |
| 20260901112257 | 73 | 250 | 14.0 | 0.0 | 0.00 | 0.00 | 0.00 | 43 | |
| 20260901110234 | 72 | 250 | 15.0 | 0.0 | 0.00 | 0.00 | 0.00 | 46 | 1020.0 |
| 20260901103231 | 72 | 250 | 17.0 | 0.0 | 0.00 | 0.00 | 0.00 | 46 | 1020.0 |
| 20260901102525 | 72 | 250 | 16.0 | 0.0 | 0.00 | 0.00 | 0.00 | 46 | |
| 20260901100231 | 70 | 250 | 15.0 | 0.0 | 0.00 | 0.00 | 0.00 | 49 | 1020.0 |
| 20260901093230 | 72 | 240 | 16.0 | 0.0 | 0.00 | 0.00 | 0.00 | 46 | 1020.0 |
| 20260901092211 | 72 | 240 | 18.0 | 0.0 | 0.00 | 0.00 | 0.00 | 46 | |
| 20260901090240 | 72 | 240 | 18.0 | 0.0 | 0.00 | 0.00 | 0.00 | 46 | 1020.0 |
| 20260901083231 | 70 | 240 | 14.0 | 0.0 | 0.00 | 0.00 | 0.00 | 49 | 1019.0 |
| 20260901082430 | 70 | 240 | 12.0 | 0.0 | 0.00 | 0.00 | 0.00 | 52 | |
| 20260901080234 | 68 | 240 | 10.0 | 0.0 | 0.00 | 0.00 | 0.00 | 56 | 1019.0 |
| 20260901073230 | 66 | 230 | 9.0 | 0.0 | 0.00 | 0.00 | 0.00 | 59 | 1019.0 |
| 20260901072426 | 66 | 230 | 12.0 | 0.0 | 0.00 | 0.00 | 0.00 | 63 | |
| 20260901070241 | 66 | 230 | 10.0 | 0.0 | 0.00 | 0.00 | 0.00 | 59 | 1019.0 |
| 20260901063238 | 66 | 220 | 15.0 | 0.0 | 0.00 | 0.00 | 0.00 | 63 | 1018.0 |
| 20260901062226 | 64 | 230 | 14.0 | 0.0 | 0.00 | 0.00 | 0.00 | 67 | |
| 20260901060234 | 64 | 230 | 13.0 | 0.0 | 0.00 | 0.00 | 0.00 | 67 | 1018.0 |
| 20260901053223 | 63 | 230 | 14.0 | 0.0 | 0.00 | 0.00 | 0.00 | 72 | 1018.0 |
| 20260901052310 | 61 | 240 | 9.0 | 0.0 | 0.00 | 0.00 | 0.00 | 77 | |
| 20260901050232 | 61 | 250 | 7.0 | 0.0 | 0.00 | 0.00 | 0.00 | 77 | 1018.0 |
| 20260901043224 | 61 | 270 | 3.0 | 0.0 | 0.00 | 0.00 | 0.00 | 72 | 1018.0 |
| 20260901042530 | 63 | 220 | 9.0 | 0.0 | 0.00 | 0.00 | 0.00 | 72 | |
| 20260901040234 | 61 | 220 | 10.0 | 0.0 | 0.00 | 0.00 | 0.00 | 77 | 1017.0 |
| 20260901033224 | 59 | 230 | 12.0 | 0.0 | 0.00 | 0.00 | 0.00 | 82 | 1017.0 |
| 20260901032227 | 61 | 230 | 12.0 | 0.0 | 0.00 | 0.00 | 0.00 | 77 | |
| 20260901030238 | 59 | 230 | 12.0 | 0.0 | 0.00 | 0.00 | 0.00 | 82 | 1017.0 |
| 20260901023223 | 57 | 240 | 8.0 | 0.0 | 0.00 | 0.00 | 0.00 | 87 | 1016.0 |
| 20260901022426 | 61 | 240 | 9.0 | 0.0 | 0.00 | 0.00 | 0.00 | 82 | |
| 20260901020234 | 57 | 240 | 9.0 | 0.0 | 0.00 | 0.00 | 0.00 | 87 | 1016.0 |
| 20260901013224 | 59 | 230 | 9.0 | 0.0 | 0.00 | 0.00 | 0.00 | 87 | 1016.0 |
| 20260901012429 | 63 | 220 | 5.0 | 0.0 | 0.00 | 0.00 | 0.00 | 77 | |
| 20260901010233 | 63 | 220 | 3.0 | 0.0 | 0.00 | 0.00 | 0.00 | 82 | 1017.0 |
| 20260901003224 | 64 | 240 | 3.0 | 0.0 | 0.00 | 0.00 | 0.00 | 77 | 1017.0 |
| 20260901002210 | 64 | 0 | 5.0 | 0.0 | 0.00 | 0.00 | 0.00 | 72 | |
| 20260901000226 | 66 | 250 | 5.0 | 0.0 | 0.00 | 0.00 | 0.00 | 68 | 1017.0 |
| 20260831233223 | 61 | 240 | 7.0 | 0.0 | 0.00 | 0.00 | 0.00 | 87 | 1017.0 |
| 20260831232326 | 63 | 230 | 7.0 | 0.0 | 0.00 | 0.00 | 0.00 | 82 | |
| 20260831230231 | 61 | 240 | 7.0 | 0.0 | 0.00 | 0.00 | 0.00 | 87 | 1017.0 |
| 20260831223224 | 61 | 210 | 5.0 | 0.0 | 0.00 | 0.00 | 0.00 | 87 | 1017.0 |
| 20260831222524 | 61 | 240 | 5.0 | 0.0 | 0.00 | 0.00 | 0.00 | 93 | |
| 20260831220234 | 61 | 250 | 5.0 | 0.0 | 0.00 | 0.00 | 0.00 | 87 | 1017.0 |
| 20260831213224 | 64 | 200 | 6.0 | 0.0 | 0.00 | 0.00 | 0.00 | 82 | 1017.0 |
| 20260831212210 | 66 | 190 | 5.0 | 0.0 | 0.00 | 0.00 | 0.00 | 77 | |
| 20260831210236 | 66 | 190 | 5.0 | 0.0 | 0.00 | 0.00 | 0.00 | 77 | 1016.0 |
| 20260831203223 | 64 | 230 | 2.0 | 0.0 | 0.00 | 0.00 | 0.00 | 82 | 1016.0 |
| 20260831202355 | 66 | 0 | 2.0 | 0.0 | 0.00 | 0.00 | 0.00 | 77 | |
| 20260831200233 | 66 | 210 | 3.0 | 0.0 | 0.00 | 0.00 | 0.00 | 72 | 1016.0 |
| 20260831193224 | 68 | 210 | 2.0 | 0.0 | 0.00 | 0.00 | 0.00 | 68 | 1016.0 |
| 20260831192357 | 70 | 0 | 2.0 | 0.0 | 0.00 | 0.00 | 0.00 | 68 | |
| 20260831190231 | 70 | 0 | 1.0 | 0.0 | 0.00 | 0.00 | 0.00 | 64 | 1015.0 |
| 20260831183231 | 70 | 0 | 2.0 | 0.0 | 0.00 | 0.00 | 0.00 | 68 | 1015.0 |
| 20260831182157 | 68 | 270 | 5.0 | 0.0 | 0.00 | 0.00 | 0.00 | 72 | |
| 20260831180232 | 70 | 270 | 6.0 | 0.0 | 0.00 | 0.00 | 0.00 | 68 | 1015.0 |
| 20260831173231 | 72 | 280 | 7.0 | 0.0 | 0.00 | 0.00 | 0.00 | 64 | 1015.0 |
| 20260831172355 | 75 | 280 | 7.0 | 0.0 | 0.00 | 0.00 | 0.00 | 57 | |
| 20260831170233 | 75 | 270 | 6.0 | 0.0 | 0.00 | 0.00 | 0.00 | 57 | 1015.0 |